STARLINK-36000, 66807

Orbit data source: Space-Track

STARLINK-36000, 66807 is a payload satellite owned by SpaceX/Seattle (US) in LEO that was launched on Mon, 01 Dec 2025 UTC via an FALCON 9 launch vehicle from the Air Force Eastern Test Range (AFETR). Payload-class satellites include a variety of spacecraft equipped with specific instruments for various scientific and technological missions. These include communications satellites like Starlink; space stations such as the ISS; scientific satellites like the Hubble; Earth observation satellites from companies like Planet Labs, Umbra, and HawkEye 360; GPS; miniature CubeSats for education and research; and military/defense satellites.

Loading next visibility...
Identifier
66807, 2025-278S
Orbit
LEO
Country
Flag of USUS
Related business
Manufacturer
SpaceX/Seattle
Mission
Operational Commercial Communications
Bus & Motor
STARLINK V2MO, Unknown motor
Mass
575 kg wet, ~530 kg dry
Launch date (UTC)
2025-12-01 (7 months ago)
Launch vehicle
FALCON 9
Launch site
Air Force Eastern Test Range (AFETR)
Object type
Payload
Rocket body
Debris
Shape & HBR
Box + 2 Pan, 17.7 m
Radar Cross Section
36.964 m², Large (>1 m²)

Expand to show TLE details & history
Last TLE update: 16 hours ago

TLE from 16 hours ago
0 STARLINK-36000
1 66807U 25278S   26171.23535731  .00013607  00000-0  50271-3 0  9992
2 66807  42.9914 255.1101 0004264 133.1190 227.0019 15.27598679 30897
Epoch: 2026-06-20T05:38Z
TLE epoch observation values (Epoch: 2026-06-20T05:38:54.871Z)
Latitude
-0°
Longitude
-98.07142°
Altitude
484.763 km
Speed
7.624 km/s
True Right ascension
17h 00m 26s
True Declination
0° 00' 00"
Sunlit
Object was in full shadow at epoch
Visualization orbit readout
Latitude
Unknown
Longitude
Unknown
Altitude
Unknown
Speed
Unknown
Apparent Right ascension
Unknown
Apparent Declination
Unknown
Sunlit
N/A
Visualization observer readout
Local Sidereal Time
08:33:29
Azimuth
Unknown
Elevation
Unknown
Doppler factor
Unknown
Orbital elements
Apogee altitude
487.866 km
Perigee altitude
482.013 km
Semi-major axis
6,863.077 km
Eccentricity
0.00043
Inclination
42.9914°
RAAN
255.1101°
Arg. of periapsis
133.119°
True anomaly
226.96618°
Mean anomaly
227.0019°
Eccentric anomaly
226.98404°
Mean motion
3.81738 °/min
Orbital period
94.31 mins
BSTAR
0.00050271
Loading maneuver chart data...
Computing Atmospheric mass density...
Loading historical data...
Loading historical data...
Loading historical data...
Loading historical data...
Loading historical data...
Loading historical data...
Loading historical data...

Documentation

Showing up to 5 results
|